Overview Statistics Trail Chart Weather Telemetry Raw packets
 

This is the latest recevied weather packets stored in our database for station/object KC9DRE. If no packets are shown the sender has not sent any weather packets the latest 10 day(s).

<< 44 45 46 47 48 49 50 >>
Time Temp. Humidity Pressure Rain* Wind** Luminosity Snow
1777631894 8.89° C 67% 1012.9 hPa 0 mm - 1 W/m² -
1777631584 8.89° C 68% 1013.1 hPa 0 mm - 0 W/m² -
1777631280 8.89° C 69% 1013.1 hPa 0 mm - 0 W/m² -
1777630977 8.89° C 70% 1013.1 hPa 0 mm - 0 W/m² -
1777630672 8.89° C 68% 1013.4 hPa 0 mm - 0 W/m² -
1777630370 9.44° C 66% 1013.6 hPa 0 mm - 0 W/m² -
1777630068 9.44° C 66% 1013.3 hPa 0 mm - 0 W/m² -
1777629765 9.44° C 66% 1013.6 hPa 0 mm - 0 W/m² -
1777629461 9.44° C 65% 1013.6 hPa 0 mm - 0 W/m² -
1777629157 8.89° C 65% 1013.6 hPa 0 mm - 0 W/m² -
1777628865 8.89° C 69% 1013.3 hPa 0 mm - 0 W/m² -
1777628551 8.89° C 67% 1013.4 hPa 0 mm - 0 W/m² -
1777628247 8.89° C 70% 1013.4 hPa 0 mm - 0 W/m² -
1777627943 8.33° C 71% 1013.4 hPa 0 mm - 0 W/m² -
1777627642 7.78° C 74% 1013.6 hPa 0 mm - 0 W/m² -
1777627342 7.78° C 75% 1013.7 hPa 0 mm - 0 W/m² -
1777627039 7.22° C 76% 1013.8 hPa 0 mm - 0 W/m² -
1777626735 6.67° C 80% 1013.8 hPa 0 mm - 0 W/m² -
1777626432 6.67° C 79% 1014.1 hPa 0 mm - 0 W/m² -
1777626130 6.67° C 80% 1013.8 hPa 0 mm - 0 W/m² -
1777625825 7.22° C 80% 1014 hPa 0 mm - 0 W/m² -
1777625521 7.22° C 82% 1014 hPa 0 mm - 0 W/m² -
1777625217 7.22° C 81% 1013.9 hPa 0 mm - 0 W/m² -
1777624913 7.78° C 80% 1014 hPa 0 mm - 0 W/m² -
1777624610 7.78° C 79% 1013.9 hPa 0 mm - 0 W/m² -

* Rain latest hour (hover to see other rain measurements)
** Current wind speed in m/s (hover to see current wind gust speed)